MST,Max TemperatureF,Mean TemperatureF,Min TemperatureF,Max Dew PointF,MeanDew PointF,Min DewpointF,Max Humidity, Mean Humidity, Min Humidity, Max Sea Level PressureIn, Mean Sea Level PressureIn, Min Sea Level PressureIn, Max VisibilityMiles, Mean VisibilityMiles, Min VisibilityMiles, Max Wind SpeedMPH, Mean Wind SpeedMPH, Max Gust SpeedMPH,PrecipitationIn, CloudCover, Events, WindDirDegrees
2014-1-1,71,56,40,29,25,19,54,35,15,30.15,30.09,30.02,10,10,10,12,5,13,0.00,0,,139
2014-1-2,75,59,42,28,23,18,57,34,11,30.15,30.07,30.01,10,10,10,24,10,29,0.00,0,,123
2014-1-3,76,61,45,31,25,21,50,32,13,30.03,29.96,29.86,10,10,10,16,7,19,0.00,0,,146
2014-1-4,68,56,43,30,27,22,53,35,17,30.01,29.95,29.90,10,10,10,9,3,11,0.00,0,,152
2014-1-5,64,51,38,31,27,21,64,42,20,30.16,30.09,30.01,10,10,10,8,4,16,0.00,0,,208
2014-1-6,68,50,32,26,14,1,69,39,8,30.25,30.16,30.09,10,10,10,18,5,23,0.00,0,,101
2014-1-7,72,56,39,21,11,4,30,19,8,30.14,30.06,29.98,10,10,10,15,6,19,0.00,0,,154
2014-1-8,69,56,42,23,20,15,45,29,12,30.08,30.03,29.98,10,10,10,12,5,16,0.00,0,,171
2014-1-9,64,52,39,24,21,18,45,32,14,30.07,30.01,29.92,10,10,10,13,8,,0.00,0,,136
2014-1-10,66,51,36,24,22,18,52,35,17,30.14,30.07,30.01,10,10,10,10,5,14,0.00,0,,176
2014-1-11,71,55,39,27,24,22,50,33,16,30.20,30.10,30.02,10,10,10,13,4,16,0.00,0,,131
2014-1-12,71,55,39,29,26,24,51,35,18,30.16,30.04,29.96,10,10,10,13,6,17,0.00,0,,182
2014-1-13,68,54,39,28,21,13,59,36,12,30.31,30.24,30.17,10,10,10,14,5,18,0.00,0,,188
2014-1-14,68,52,35,22,18,15,48,31,13,30.32,30.26,30.20,10,10,10,12,5,17,0.00,0,,155
2014-1-15,73,54,34,21,17,7,56,32,8,30.30,30.22,30.13,10,10,10,9,4,12,0.00,0,,91
2014-1-16,74,57,40,21,18,9,41,25,8,30.17,30.10,30.01,10,10,10,15,7,17,0.00,0,,154
2014-1-17,77,57,37,21,16,5,44,25,6,30.17,30.09,30.02,10,10,10,12,5,14,0.00,0,,148
2014-1-18,76,59,41,19,15,9,36,22,7,30.13,30.08,30.00,10,10,10,15,6,17,0.00,0,,150
2014-1-19,79,60,41,20,14,9,33,20,7,30.17,30.10,30.04,10,10,10,14,6,18,0.00,0,,155
2014-1-20,78,61,43,21,16,9,34,21,7,30.19,30.12,30.06,10,10,10,13,7,17,0.00,0,,146
2014-1-21,78,61,43,18,12,5,35,21,6,30.20,30.11,30.02,10,10,10,25,11,34,0.00,0,,126
2014-1-22,77,62,47,21,18,12,32,21,9,30.01,29.92,29.82,10,10,10,13,4,16,0.00,0,,195
2014-1-23,73,58,43,23,19,11,40,25,9,30.15,29.98,29.88,10,10,10,12,5,14,0.00,0,,147
2014-1-24,66,60,53,19,17,16,28,21,14,30.28,30.20,30.14,10,10,10,29,14,36,0.00,3,,110
2014-1-25,74,65,56,46,34,21,43,32,20,30.19,30.12,30.04,10,10,10,15,5,20,T,4,,207
2014-1-26,72,59,45,36,30,23,65,41,17,30.08,30.01,29.92,10,10,10,12,5,16,0.00,0,,182
2014-1-27,72,61,49,32,28,21,45,31,16,30.01,29.95,29.88,10,10,10,16,4,20,0.00,3,,227
2014-1-28,73,58,42,29,24,17,53,33,13,30.08,30.02,29.95,10,10,10,14,6,16,0.00,0,,174
2014-1-29,75,58,40,23,19,12,43,26,9,30.08,30.00,29.92,10,10,10,12,6,16,0.00,0,,155
2014-1-30,81,64,46,23,18,14,31,20,8,29.93,29.85,29.77,10,10,10,18,8,23,0.00,0,,190
2014-1-31,73,66,58,42,29,18,43,29,15,29.82,29.77,29.72,10,10,10,23,9,31,0.00,3,,245